Home > Weather > Lynchburg > Past weeks

Flag for USA Past Weather in Lynchburg, Virginia, USA — Yesterday and Last 2 Weeks

Now
65 °F

Clear.


Feels Like: 65 °F
Forecast: 64 / 83 °F
Wind: No wind

Location: Lynchburg Regional Airport

Current Time: Jun 26, 2016 at 7:52:38 AM

Latest Report: Jun 26, 2016 at 6:54 AM


Visibility: 10 mi

Pressure: 30.23 "Hg

Humidity: 100%

Dew Point: 65 °F

Location of LynchburgLocation

Past Weather in Lynchburg — Graph

°F

Lynchburg Temperature Yesterday

Maximum temperature yesterday: 78 °F (at 3:54 PM)
Minimum temperature yesterday: 65 °F (at 11:54 PM)
Average temperature yesterday: 71 °F

High & Low Weather Summary for the Past Weeks

 TemperatureHumidityPressure
High92 °F (Jun 11, 5:54 PM)100% (Jun 15, 10:54 PM)30.41 "Hg (Jun 15, 10:54 PM)
Low53 °F (Jun 19, 3:54 AM)28% (Jun 13, 12:54 PM)29.63 "Hg (Jun 16, 8:54 PM)
Average72 °F72%30.02 "Hg
* Reported Jun 11 5:54 AM — Jun 26 5:54 AM, Lynchburg, Weather by CustomWeather, © 2016

Note: Actual official high and low records may vary slightly from our data, if they occured in-between our weather recording intervals... More about our weather records

Advertising

Lynchburg Weather History for the Previous 24 Hours

Scroll right to see more
 ConditionsComfort  
Time TempWeatherWind HumidityBarometerVisibility
5:54 AM
Sun, Jun 26
65 °FPassing clouds.No wind100%30.23 "Hg10 mi
4:54 AM66 °FMostly cloudy.No wind96%30.23 "Hg10 mi
3:54 AM65 °FMostly cloudy.No wind100%30.22 "Hg10 mi
2:54 AM66 °FPassing clouds.No wind96%30.22 "Hg10 mi
1:54 AM65 °FPassing clouds.No wind100%30.21 "Hg10 mi
12:54 AM66 °FPassing clouds.No wind96%30.22 "Hg10 mi
11:54 PM
Sat, Jun 25
65 °FClear.No wind97%30.21 "Hg10 mi
10:54 PM67 °FClear.No wind93%30.22 "Hg10 mi
9:54 PM67 °FClear.No wind93%30.19 "Hg10 mi
8:54 PM69 °FSunny.No wind87%30.18 "Hg10 mi
7:54 PM76 °FSunny.No wind72%30.17 "Hg10 mi
6:54 PM76 °FSunny.7 mph67%30.17 "Hg10 mi
5:54 PM77 °FPassing clouds.9 mph64%30.18 "Hg10 mi
4:54 PM78 °FSunny.10 mph64%30.16 "Hg10 mi
3:54 PM78 °FPassing clouds.10 mph66%30.17 "Hg10 mi
2:54 PM77 °FScattered clouds.9 mph66%30.17 "Hg10 mi
1:54 PM74 °FOvercast.5 mph76%30.18 "Hg10 mi
12:54 PM73 °FMore clouds than sun.7 mph79%30.19 "Hg10 mi
11:54 AM73 °FMore clouds than sun.8 mph76%30.19 "Hg10 mi
10:54 AM73 °FOvercast.13 mph79%30.18 "Hg10 mi
9:54 AM72 °FMostly cloudy.10 mph84%30.16 "Hg10 mi
8:54 AM71 °FMostly cloudy.9 mph87%30.15 "Hg10 mi
7:54 AM70 °FLow clouds.9 mph90%30.13 "Hg10 mi
Weather by CustomWeather, © 2016

See weather overviewHow to use our weather pages